STARLINK-1664, 46553

Orbit data source: Space-Track

STARLINK-1664, 46553 is a payload satellite owned by SpaceX/Seattle (US) in LEO that was launched on Tue, 06 Oct 2020 UTC via an FALCON 9 launch vehicle from the Air Force Eastern Test Range (AFETR). Payload-class satellites include a variety of spacecraft equipped with specific instruments for various scientific and technological missions. These include communications satellites like Starlink; space stations such as the ISS; scientific satellites like the Hubble; Earth observation satellites from companies like Planet Labs, Umbra, and HawkEye 360; GPS; miniature CubeSats for education and research; and military/defense satellites.

Loading next visibility...
Identifier
46553, 2020-070X
Orbit
LEO
Last TLE update
8 hours ago
Origin
Manufacturer
SpaceX/Seattle
Mission
Operational Commercial Communications
Bus & Motor
STARLINK, Unknown motor
Mass
260 kg wet, ~248 kg dry
Launch date (UTC)
2020-10-06 (5 years ago)
Launch vehicle
FALCON 9
Launch site
Air Force Eastern Test Range (AFETR)
Object type
Payload
Rocket body
Debris
Shape & HBR
Box + 1 Pan, 4.4 m
Radar Cross Section
13.562 m², Large (>1 m²)

Expand to show TLE details & history

TLE from 8 hours ago
0 STARLINK-1664
1 46553U 20070X   25199.09860221 -.00000030  00000-0  16901-4 0  9991
2 46553  53.0553 119.7495 0001423  92.7507 267.3645 15.06391930264576
Epoch: 2025-07-18T02:21Z
TLE epoch observation values (Epoch: 2025-07-18T02:21:59.23Z)
Latitude
-0.00004°
Longitude
148.09775°
Altitude
548.161 km
Speed
7.589 km/s
True Right ascension
07h 58m 59s
True Declination
0° 00' 00"
Sunlit
Object was in daylight at epoch
Visualization orbit readout
Latitude
41.64547°
Longitude
-171.74823°
Altitude
550.393 km
Speed
7.592 km/s
Apparent Right ascension
10h 59m 14s
Apparent Declination
2° 54' 48"
Sunlit
Object is in daylight
Visualization observer readout
Local Sidereal Time
23:20:01
Azimuth
7.605° NNE
Elevation
-46.906°
Doppler factor
1
Orbital elements
Apogee altitude
548.492 km
Perigee altitude
546.521 km
Semi-major axis
6,925.644 km
Eccentricity
0.00014
Inclination
53.0553°
RAAN
119.7495°
Arg. of periapsis
92.7507°
True anomaly
267.34821°
Mean anomaly
267.3645°
Eccentric anomaly
267.35636°
Mean motion
3.76576 °/min
Orbital period
95.6 mins
BSTAR
0.000016901
Loading maneuver chart data...
Loading SW <> Apogee altitude chart data...
Loading historical data...
Loading historical data...
Loading historical data...
Loading historical data...
Loading historical data...
Loading historical data...
Loading historical data...
|